Goodland, KS

9:37 AM MST on January 19, 2017 (GMT -0700)
Renner-Goodland Municipal

Weather History for KGLD - February, 2014

Change the Weather History Date:

Wednesday, February 19, 2014

  Actual Average Record
Temperature  
Mean Temperature 46 °F 33 °F  
Max Temperature 58 °F 46 °F 75 °F (1986)
Min Temperature 34 °F 20 °F -4 °F (1908)
Degree Days  
Heating Degree Days 19 32  
Month to date heating degree days 781 642  
Since 1 July heating degree days 4224 4145  
Cooling Degree Days 0 0  
Month to date cooling degree days 0 0  
Year to date cooling degree days 0 0  
Moisture  
Dew Point 23 °F    
Average Humidity 46    
Maximum Humidity 69    
Minimum Humidity 23    
Precipitation  
Precipitation 0.00 in 0.02 in 0.31 in (1919)
Month to date precipitation 0.22 0.30  
Year to date precipitation 0.79 0.68  
Snow  
Snow 0.00 in 0.20 in - ()
Month to date snowfall 5.8 3.9  
Since 1 July snowfall 22.2 22.5  
Snow Depth 0.00 in    
Sea Level Pressure  
Sea Level Pressure 29.67 in    
Wind  
Wind Speed 17 mph (South)    
Max Wind Speed 37 mph    
Max Gust Speed 47 mph    
Visibility 10 miles    
Events      
T = Trace of Precipitation, MM = Missing Value Source: NWS Daily Summary

Daily Weather History Graph

Daily Weather History Graph

Search for Another Location

Airport or City:

Trip Planner

Search our weather history database for the weather conditions in past years. The results will help you decide how hot, cold, wet, or windy it might be!

Date:

Astronomy

Feb. 19, 2014 Rise Set
Actual Time 6:33 AM MST 5:28 PM MST
Civil Twilight 6:06 AM MST 5:55 PM MST
Nautical Twilight 5:34 AM MST 6:26 PM MST
Astronomical Twilight 5:03 AM MST 6:57 PM MST
Moon 10:21 PM MST 8:42 AM MST
Length of Visible Light 11h 49m
Length of Day
10h 54m
Waning Gibbous, 79% of the Moon is Illuminated
Feb 19
Waning Gibbous
Feb 22
Last Quarter
Mar 1
New
Mar 8
First Quarter
Mar 16
Full

Hourly Weather History & Observations

Time (MST) Temp. Windchill Dew Point Humidity Pressure Visibility Wind Dir Wind Speed Gust Speed Precip Events Conditions
12:53 AM 35.1 °F 30.1 °F 24.1 °F 64% 29.97 in 10.0 mi South 5.8 mph - N/A   Clear
1:53 AM 37.9 °F 30.9 °F 21.9 °F 53% 29.95 in 10.0 mi SSW 10.4 mph - N/A   Clear
2:53 AM 36.0 °F 27.5 °F 21.9 °F 57% 29.93 in 10.0 mi SSW 12.7 mph - N/A   Clear
3:53 AM 37.0 °F 28.5 °F 21.9 °F 54% 29.91 in 10.0 mi SSW 13.8 mph - N/A   Clear
4:53 AM 37.0 °F 28.9 °F 19.9 °F 50% 29.89 in 10.0 mi SSW 12.7 mph - N/A   Clear
5:53 AM 37.0 °F 28.1 °F 19.9 °F 50% 29.89 in 10.0 mi SSW 15.0 mph 23.0 mph N/A   Clear
6:53 AM 36.0 °F 29.0 °F 19.9 °F 52% 29.89 in 10.0 mi South 9.2 mph - N/A   Clear
7:53 AM 39.9 °F 31.4 °F 19.0 °F 43% 29.87 in 10.0 mi SSW 16.1 mph - N/A   Clear
8:53 AM 43.0 °F 35.4 °F 19.9 °F 40% 29.84 in 10.0 mi SSW 16.1 mph 26.5 mph N/A   Clear
9:53 AM 48.0 °F - 19.0 °F 32% 29.80 in 10.0 mi SSW 28.8 mph 39.1 mph N/A   Clear
10:53 AM 48.9 °F - 19.9 °F 32% 29.76 in 10.0 mi South 25.3 mph 34.5 mph N/A   Clear
11:53 AM 53.1 °F - 19.9 °F 27% 29.69 in 10.0 mi South 32.2 mph 40.3 mph N/A   Clear
12:53 PM 55.0 °F - 19.0 °F 24% 29.62 in 10.0 mi South 31.1 mph 42.6 mph N/A   Clear
1:53 PM 57.0 °F - 19.0 °F 23% 29.56 in 10.0 mi SSW 25.3 mph 32.2 mph N/A   Clear
2:53 PM 57.0 °F - 19.0 °F 23% 29.52 in 10.0 mi South 26.5 mph 34.5 mph N/A   Clear
3:53 PM 55.9 °F - 19.0 °F 24% 29.50 in 10.0 mi South 18.4 mph - N/A   Clear
4:53 PM 53.1 °F - 21.0 °F 29% 29.50 in 10.0 mi South 11.5 mph - N/A   Clear
5:53 PM 42.1 °F 35.2 °F 21.9 °F 45% 29.49 in 10.0 mi SSE 12.7 mph - N/A   Clear
6:53 PM 36.0 °F 29.6 °F 21.0 °F 55% 29.52 in 10.0 mi ESE 8.1 mph - N/A   Clear
7:53 PM 35.1 °F 29.3 °F 21.9 °F 59% 29.47 in 10.0 mi SE 6.9 mph - N/A   Clear
8:53 PM 37.9 °F 31.5 °F 25.0 °F 60% 29.44 in 10.0 mi SSE 9.2 mph - N/A   Mostly Cloudy
9:53 PM 46.9 °F - 28.9 °F 50% 29.45 in 10.0 mi South 11.5 mph 46.0 mph N/A   Mostly Cloudy
10:53 PM 44.1 °F 34.6 °F 30.0 °F 58% 29.49 in 10.0 mi North 26.5 mph 31.1 mph N/A   Overcast
11:36 PM 37.0 °F 23.3 °F 33.1 °F 86% 29.55 in 10.0 mi NNW 36.8 mph 47.2 mph N/A   Overcast
11:45 PM 36.0 °F 22.4 °F 32.0 °F 86% 29.54 in 10.0 mi NNW 33.4 mph 42.6 mph N/A   Overcast
11:53 PM 35.1 °F 22.2 °F 30.9 °F 85% 29.54 in 10.0 mi NNW 27.6 mph 44.9 mph N/A   Overcast